Change the Weather History Date:

Friday, July 12, 2013

  Actual Average Record
Temperature  
Mean Temperature 74 °F -  
Max Temperature 83 °F - 102 °F (1954)
Min Temperature 64 °F - 53 °F (1973)
Degree Days  
Heating Degree Days 0    
Month to date heating degree days 0  
Since 1 July heating degree days 0  
Cooling Degree Days 9    
Month to date cooling degree days 113  
Growing Degree Days 23 (Base 50)    
Moisture  
Dew Point 59 °F    
Average Humidity 64    
Maximum Humidity 87    
Minimum Humidity 40    
Precipitation  
Precipitation 0.00 in - 1.12 in (1990)
Month to date precipitation 2.67  
Sea Level Pressure  
Sea Level Pressure 30.01 in    
Wind  
Wind Speed 6 mph (NE)    
Max Wind Speed 15 mph    
Max Gust Speed 22 mph    
Visibility 10 miles    
Events      
T = Trace of Precipitation, MM = Missing Value Source: NWS Daily Summary

Daily Weather History Graph

Daily Weather History Graph

Search for Another Location

Airport or City:

Trip Planner

Search our weather history database for the weather conditions in past years. The results will help you decide how hot, cold, wet, or windy it might be!

Date:

Astronomy

Jul. 12, 2013 Rise Set
Actual Time 5:41 AM CDT 8:09 PM CDT
Civil Twilight 5:11 AM CDT 8:39 PM CDT
Nautical Twilight 4:34 AM CDT 9:16 PM CDT
Astronomical Twilight 3:53 AM CDT 9:57 PM CDT
Moon 9:49 AM CDT (7/12) 10:28 PM CDT (7/12)
Length of Visible Light 15h 28m
Length of Day
14h 28m
Waxing Crescent, 17% of the Moon is Illuminated
Jul 12
Waxing Crescent
Jul 15
First Quarter
Jul 22
Full
Jul 29
Last Quarter
Aug 6
New

Hourly Weather History & Observations

Time (CDT) Temp. Heat Index Dew Point Humidity Pressure Visibility Wind Dir Wind Speed Gust Speed Precip Events Conditions
12:52 AM 66.0 °F - 60.1 °F 81% 29.98 in 10.0 mi North 6.9 mph - N/A   Clear
1:52 AM 64.9 °F - 60.1 °F 84% 29.98 in 10.0 mi North 5.8 mph - N/A   Clear
2:52 AM 64.9 °F - 60.1 °F 84% 29.98 in 10.0 mi North 4.6 mph - N/A   Clear
3:52 AM 64.9 °F - 60.1 °F 84% 29.98 in 10.0 mi NNE 4.6 mph - N/A   Clear
4:52 AM 64.9 °F - 60.1 °F 84% 29.99 in 10.0 mi NNE 3.5 mph - N/A   Partly Cloudy
5:52 AM 64.0 °F - 60.1 °F 87% 30.01 in 10.0 mi NNE 4.6 mph - N/A   Scattered Clouds
6:52 AM 66.9 °F - 61.0 °F 81% 30.03 in 10.0 mi NNE 6.9 mph - N/A   Clear
7:52 AM 70.0 °F - 61.0 °F 73% 30.04 in 10.0 mi NE 5.8 mph - N/A   Clear
8:52 AM 73.0 °F - 62.1 °F 68% 30.05 in 10.0 mi NNE 8.1 mph - N/A   Clear
9:52 AM 75.9 °F - 60.1 °F 58% 30.04 in 10.0 mi ENE 8.1 mph 18.4 mph N/A   Clear
10:52 AM 79.0 °F - 57.9 °F 48% 30.05 in 10.0 mi NE 12.7 mph 21.9 mph N/A   Clear
11:52 AM 80.1 °F 80.4 °F 57.0 °F 45% 30.04 in 10.0 mi East 9.2 mph - N/A   Clear
12:52 PM 81.0 °F 80.7 °F 55.0 °F 41% 30.03 in 10.0 mi ENE 8.1 mph 16.1 mph N/A   Clear
1:52 PM 82.9 °F 82.1 °F 55.9 °F 39% 30.03 in 10.0 mi NE 8.1 mph - N/A   Clear
2:52 PM 82.0 °F 81.6 °F 55.9 °F 41% 30.02 in 10.0 mi NNE 9.2 mph - N/A   Clear
3:52 PM 82.0 °F 82.0 °F 57.9 °F 44% 30.01 in 10.0 mi ENE 8.1 mph 16.1 mph N/A   Clear
4:52 PM 82.0 °F 82.0 °F 57.9 °F 44% 30.00 in 10.0 mi NE 9.2 mph 16.1 mph N/A   Clear
5:52 PM 81.0 °F 81.1 °F 57.9 °F 45% 29.99 in 10.0 mi NNE 10.4 mph - N/A   Clear
6:52 PM 80.1 °F 80.7 °F 59.0 °F 48% 30.00 in 10.0 mi NNE 9.2 mph - N/A   Clear
7:52 PM 77.0 °F - 57.9 °F 52% 30.00 in 10.0 mi NNE 4.6 mph - N/A   Clear
8:52 PM 72.0 °F - 60.1 °F 66% 30.00 in 10.0 mi NE 4.6 mph - N/A   Clear
9:52 PM 70.0 °F - 59.0 °F 68% 30.02 in 10.0 mi NE 4.6 mph - N/A   Clear
10:52 PM 68.0 °F - 59.0 °F 73% 30.02 in 10.0 mi Calm Calm - N/A   Clear
11:52 PM 66.0 °F - 60.1 °F 81% 30.02 in 10.0 mi NE 3.5 mph - N/A   Clear